Orbital Elements at Epoch 2456476.5 (2013-Jul-03.0) TDB
Reference: JPL 20 (heliocentric ecliptic J2000)
Element | Value | Uncertainty (1-sigma) | Units |
e | .587153346460308 | 1.5235e-07 | |
a | 6.229249463558982 | 1.5833e-07 | au |
q | 2.571724795094247 | 9.425e-07 | au |
i | 4.348710748666897 | 2.039e-05 | deg |
node | 202.1234304873094 | 0.00010192 | deg |
peri | 18.56022478087767 | 0.00011855 | deg |
M | 339.5586426793965 | 1.3532e-05 | deg |
tp | 2456798.947668594113 (2014-May-21.44766859) | 0.00020793 | TDB |
period | 5678.740353356016 15.55 | 0.00021651 5.928e-07 | d yr |
n | .06339434057541432 | 2.417e-09 | deg/d |
Q | 9.886774132023717 | 2.513e-07 | au |
|
Additional Model Parameters
Parameter | Value | Uncertainty (1-sigma) |
A2 [EST] | 1.607468725575234E-9 | 4.338E-11 |
|
| | Orbit Determination Parameters
Additional Information
|